Regional Weather Roundup
Issued by NWS

Home | Current Version | Previous Version | Text Only | Print | Product List | Glossary Off
Versions: 1 2 3 4 5 6 7 8 9 10 11 12 13 14 15 16 17 18 19 20 21 22 23 24 25 26 27 28 29 30 31 32 33 34 35 36 37 38 39 40 41 42 43 44 45 46 47 48 49 50

000
ASUS43 KLSX 250459
RWRMO

WEATHER SUMMARY FOR MISSOURI
NATIONAL WEATHER SERVICE SPRINGFIELD MO
1200 AM CDT SAT APR 25 2015

NOTE: "FAIR" INDICATES FEW OR NO CLOUDS BELOW 12,000 FEET WITH NO
       SIGNIFICANT WEATHER AND/OR OBSTRUCTIONS TO VISIBILITY.
       CURRENT SKY AND/OR WEATHER CONDITIONS ARE NOT AVAILABLE FOR
       CHILLICOTHE AND FARMINGTON.

MOZ001>031-035>038-043-044-053-054-250600-
...NORTHERN AND WESTERN MISSOURI...

CITY           SKY/WX    TMP DP  RH WIND       PRES   REMARKS
KANSAS CTY INT CLOUDY    61  55  81 SE15      29.54F
KANSAS C DTWN  CLOUDY    63  54  72 SE13      29.54F
LEE`S SUMMIT   CLOUDY    60  53  77 SE14      29.57F
ST JOSEPH      MOCLDY    58  54  86 SE12      29.52F
CHILLICOTHE      N/A     59  51  75 SE9       29.60F
KIRKSVILLE     PTCLDY    55  50  83 SE13      29.63F

$$
MOZ066>068-077>081-088>096-101>105-250600-
...SOUTHWEST MISSOURI...

CITY           SKY/WX    TMP DP  RH WIND       PRES   REMARKS
SPRINGFIELD    CLOUDY    58  56  93 S18       29.61S
JOPLIN         CLOUDY    61  56  83 S16G22    29.56F

$$
MOZ032>034-039>042-045>050-055>058-069>072-250600-
...CENTRAL MISSOURI...

CITY           SKY/WX    TMP DP  RH WIND       PRES   REMARKS
COLUMBIA       CLOUDY    55  51  86 E3        29.67S
JEFFERSON CITY CLOUDY    56  50  80 SE8       29.67F
ROLLA          CLOUDY    52  50  93 S18       29.65F
SEDALIA        CLOUDY    56  51  84 E6        29.64F
OSAGE BEACH    CLOUDY    57  52  82 SE9       29.65R

$$
MOZ051-052-059>065-250600-
...EAST CENTRAL MISSOURI...

CITY           SKY/WX    TMP DP  RH WIND       PRES   REMARKS
ST LOUIS INTL  CLOUDY    56  44  64 SE13      29.73F
SPIRIT OF STL  CLOUDY    54  46  74 CALM      29.71F
ST CHARLES     CLOUDY    54  45  71 SE5       29.73F

$$
MOZ072>076-082>087-097>100-106>115-250600-
...SOUTH CENTRAL AND SOUTHEAST MISSOURI...

CITY           SKY/WX    TMP DP  RH WIND       PRES   REMARKS
CAPE GIRARDEAU CLOUDY    56  52  86 SE5       29.77F
FARMINGTON     CLOUDY    54  48  82 S7        29.77F
POPLAR BLUFF   CLOUDY    55  52  89 CALM      29.74F
WEST PLAINS    FOG       53  52  96 SE6       29.72S VSB 1/4

$$


USA.gov is the U.S. government's official web portal to all federal, state and local government web resources and services.